Погода в Чаршамбе

Турция     41°11′50″N   36°43′23″E
темп.,
°C
ветер,
м/с
пор.,
м/с
влажн.,
%
обл.,
%
осадки,
мм/ч
давл.,
гПа
погр.,
м
9 мая, вс
вс900:00+14с1394100 0.7 1015116
03:00+14сз61197100 1.1 1015806
06:00+11зсз91695100 7.9 10181000
09:00+11зсз71292100 16.6 10211066
12:00+13зсз7118099 2.6 10241279
15:00+14ссз79603 2.7 10251503
18:00+12сз57686 0.1 10271182
21:00+9з35804 0.3 1028140
10 мая, пн
пн1000:00+7зюз348636 0.1 1028106
03:00+7зюз238751 0.3 102767
06:00+8юз228369 0.1 102779
09:00+12з226459 0.2 10271061
12:00+15ссз435327 0.1 10261502
15:00+15с44524 0.1 10251379
18:00+13св33590 0.0 10241083
21:00+8ююв22780 0.0 102417
11 мая, вт
вт1100:00+6ююз22860 0.0 102323
03:00+5ююз22860 0.0 102126
06:00+5ююз22794 0.0 102143
09:00+13вюв01510 0.0 1020692
12:00+16ссв33430 0.0 10191354
15:00+16св43480 0.0 10181044
18:00+14в33580 0.0 1018580
21:00+8ююв12810 0.0 101821
12 мая, ср
ср1200:00+7ююз22830 0.0 101615
03:00+7ююв22820 0.0 101515
06:00+7юв22830 0.0 101426
09:00+15всв22595 0.0 1013453
12:00+19всв435265 0.0 1012657
15:00+19в55570 0.0 1012503
18:00+16в46720 0.0 1012327
21:00+11вюв249216 0.0 101271
13 мая, чт
чт1300:00+11в229389 0.0 101032
03:00+11вюв12911 0.0 100921
06:00+12вюв228641 0.0 100929
09:00+22в125441 0.0 1008212
12:00+24ссз335390 0.0 1009354
15:00+24с22550 0.0 1009373
18:00+21св11670 0.0 1010122
21:00+16з01850 0.0 101011